SPK408 KMCO-KLAX

Flight info

Callsign SPK408
Flight time N/A
Altitude 34000
Route RDSOX1 JFRYS PATOY Q116 JAWJA CABLO KT12M SARKK PLEBS CNX NABOB HIPPI GABBL HLYWD1
Aircraft B77L/H-L/S

Departure

Time 2026-04-25 19:14
Airport Orlando International Airport (KMCO)

Arrival

Time N/A
Airport Los Angeles International Airport (KLAX)
Time Latitude Longitude Altitude Speed Heading
2026-04-25 18:46 28.42754 -81.30034 110 ft 0 kts 301°
2026-04-25 19:01 28.42752 -81.30031 110 ft 2 kts 301°
2026-04-25 19:02 28.42725 -81.29979 110 ft 4 kts 300°
2026-04-25 19:02 28.42712 -81.29953 110 ft 4 kts 301°
2026-04-25 19:02 28.42697 -81.29927 110 ft 4 kts 304°
2026-04-25 19:03 28.42669 -81.29890 110 ft 4 kts 329°
2026-04-25 19:03 28.42651 -81.29881 110 ft 0 kts 360°
2026-04-25 19:06 28.42656 -81.29881 110 ft 2 kts
2026-04-25 19:06 28.42677 -81.29882 110 ft 5 kts 360°
2026-04-25 19:07 28.42788 -81.29882 110 ft 8 kts 360°
2026-04-25 19:07 28.42857 -81.29882 110 ft 13 kts 360°
2026-04-25 19:08 28.42923 -81.29815 110 ft 6 kts 40°
2026-04-25 19:08 28.42970 -81.29800 110 ft 10 kts
2026-04-25 19:09 28.43225 -81.29802 110 ft 12 kts 359°
2026-04-25 19:09 28.43279 -81.29803 110 ft 11 kts 359°
2026-04-25 19:09 28.43457 -81.29806 110 ft 11 kts
2026-04-25 19:10 28.43551 -81.29782 110 ft 16 kts 54°
2026-04-25 19:10 28.43555 -81.29700 110 ft 0 kts 97°
2026-04-25 19:10 28.43553 -81.29685 110 ft 7 kts 97°
2026-04-25 19:11 28.43552 -81.29629 110 ft 7 kts 90°
2026-04-25 19:11 28.43533 -81.29579 110 ft 8 kts 142°
2026-04-25 19:11 28.43483 -81.29582 110 ft 8 kts 203°
2026-04-25 19:11 28.43465 -81.29586 110 ft 0 kts 179°
2026-04-25 19:12 28.43461 -81.29586 110 ft 4 kts 179°
2026-04-25 19:12 28.43448 -81.29586 110 ft 0 kts 179°
2026-04-25 19:13 28.43442 -81.29586 110 ft 7 kts 179°
2026-04-25 19:13 28.43157 -81.29581 110 ft 80 kts 179°
2026-04-25 19:13 28.42337 -81.29569 110 ft 154 kts 179°
2026-04-25 19:13 28.41094 -81.29552 387 ft 193 kts 179°
2026-04-25 19:14 28.39707 -81.29528 1204 ft 203 kts 179°
2026-04-25 19:14 28.38768 -81.29506 1894 ft 205 kts 180°
2026-04-25 19:14 28.36917 -81.29877 3214 ft 203 kts 209°
2026-04-25 19:14 28.35980 -81.31009 4127 ft 204 kts 240°
2026-04-25 19:15 28.35545 -81.32553 4944 ft 210 kts 256°
2026-04-25 19:15 28.35251 -81.34256 5440 ft 234 kts 259°
2026-04-25 19:15 28.35041 -81.36182 5946 ft 256 kts 265°
2026-04-25 19:15 28.35077 -81.38260 6701 ft 269 kts 275°
2026-04-25 19:16 28.35334 -81.40398 7627 ft 277 kts 277°
2026-04-25 19:16 28.35627 -81.42570 8630 ft 282 kts 278°
2026-04-25 19:16 28.35942 -81.44777 9613 ft 285 kts 278°
2026-04-25 19:16 28.36258 -81.46994 10651 ft 287 kts 279°
2026-04-25 19:17 28.36585 -81.49284 11392 ft 300 kts 279°
2026-04-25 19:17 28.36926 -81.51680 12057 ft 315 kts 280°
2026-04-25 19:17 28.37284 -81.54207 12607 ft 334 kts 280°
2026-04-25 19:17 28.37670 -81.56882 13137 ft 353 kts 281°
2026-04-25 19:18 28.38084 -81.59688 13744 ft 368 kts 281°
2026-04-25 19:18 28.38503 -81.62599 14475 ft 379 kts 280°
2026-04-25 19:18 28.38919 -81.65575 15322 ft 385 kts 280°
2026-04-25 19:18 28.39339 -81.68595 16236 ft 388 kts 280°
2026-04-25 19:19 28.39763 -81.71641 17090 ft 393 kts 280°
2026-04-25 19:19 28.40192 -81.74733 17908 ft 398 kts 280°
2026-04-25 19:19 28.40625 -81.77860 18699 ft 404 kts 280°
2026-04-25 19:19 28.40915 -81.79955 19209 ft 407 kts 280°
2026-04-25 19:20 28.41511 -81.84250 20158 ft 415 kts 280°
2026-04-25 19:20 28.41962 -81.87506 20894 ft 420 kts 280°
2026-04-25 19:20 28.42408 -81.90805 21571 ft 426 kts 279°
2026-04-25 19:20 28.42701 -81.94173 22221 ft 431 kts 275°
2026-04-25 19:21 28.42842 -81.97602 22839 ft 437 kts 273°
2026-04-25 19:21 28.42869 -82.04589 24110 ft 447 kts 272°
2026-04-25 19:21 28.42871 -82.08135 24723 ft 451 kts 272°
2026-04-25 19:22 28.42902 -82.11712 25329 ft 455 kts 273°
2026-04-25 19:22 28.42971 -82.15321 25930 ft 459 kts 273°
2026-04-25 19:22 28.43095 -82.22637 27077 ft 468 kts 272°
2026-04-25 19:23 28.43147 -82.26352 27628 ft 472 kts 272°
2026-04-25 19:23 28.43245 -82.33857 28729 ft 480 kts 272°
2026-04-25 19:23 28.43293 -82.37657 29251 ft 483 kts 272°
2026-04-25 19:24 28.43503 -82.41464 29710 ft 483 kts 281°
2026-04-25 19:24 28.44492 -82.45091 30257 ft 481 kts 296°
2026-04-25 19:24 28.48717 -82.50741 31949 ft 467 kts 321°
2026-04-25 19:25 28.54048 -82.54877 33244 ft 463 kts 327°
2026-04-25 19:25 28.56814 -82.56730 33836 ft 460 kts 329°
2026-04-25 19:25 28.59592 -82.58534 34358 ft 459 kts 329°
2026-04-25 19:26 28.62354 -82.60348 34787 ft 459 kts 328°
2026-04-25 19:26 28.65118 -82.62182 35269 ft 458 kts 328°
2026-04-25 19:26 28.67868 -82.64022 35673 ft 458 kts 328°
2026-04-25 19:26 28.70581 -82.65841 35953 ft 460 kts 328°
2026-04-25 19:27 28.75201 -82.68934 35969 ft 459 kts 328°
2026-04-25 19:27 28.81638 -82.73235 35969 ft 459 kts 328°
2026-04-25 19:28 28.87100 -82.76908 35967 ft 459 kts 328°
2026-04-25 19:28 28.92592 -82.80618 35966 ft 459 kts 328°
2026-04-25 19:29 28.98086 -82.84334 35964 ft 459 kts 328°
2026-04-25 19:29 29.03588 -82.88058 35963 ft 460 kts 328°
2026-04-25 19:30 29.09029 -82.91892 35960 ft 459 kts 324°
2026-04-25 19:30 29.14176 -82.96216 35958 ft 459 kts 322°
2026-04-25 19:31 29.19344 -83.00519 35956 ft 459 kts 323°
2026-04-25 19:31 29.24543 -83.04771 35955 ft 459 kts 323°
2026-04-25 19:32 29.29735 -83.09028 35954 ft 459 kts 323°
2026-04-25 19:32 29.33214 -83.11882 35953 ft 460 kts 323°
2026-04-25 19:33 29.40135 -83.17575 35950 ft 460 kts 323°
2026-04-25 19:33 29.45334 -83.21857 35950 ft 460 kts 323°
2026-04-25 19:34 29.50531 -83.26143 35951 ft 460 kts 323°
2026-04-25 19:34 29.55738 -83.30428 35950 ft 461 kts 323°
2026-04-25 19:35 29.60961 -83.34714 35950 ft 461 kts 323°
2026-04-25 19:35 29.66171 -83.39003 35949 ft 461 kts 323°
2026-04-25 19:36 29.71376 -83.43316 35948 ft 461 kts 323°
2026-04-25 19:36 29.76579 -83.47637 35947 ft 461 kts 323°
2026-04-25 19:37 29.81782 -83.51961 35947 ft 461 kts 323°
2026-04-25 19:37 29.86988 -83.56292 35947 ft 461 kts 323°
2026-04-25 19:38 29.92193 -83.60614 35949 ft 462 kts 323°
2026-04-25 19:38 29.97410 -83.64935 35949 ft 462 kts 323°
2026-04-25 19:39 30.02576 -83.69247 35949 ft 462 kts 322°
2026-04-25 19:39 30.07783 -83.73602 35949 ft 462 kts 322°
2026-04-25 19:40 30.12992 -83.77964 35946 ft 463 kts 322°
2026-04-25 19:40 30.17899 -83.82719 35945 ft 460 kts 311°
2026-04-25 19:41 30.21772 -83.88594 35937 ft 460 kts 303°
2026-04-25 19:41 30.24115 -83.92727 35936 ft 459 kts 302°
2026-04-25 19:42 30.28821 -84.00914 35929 ft 459 kts 303°
2026-04-25 19:42 30.32403 -84.07031 35926 ft 459 kts 303°
2026-04-25 19:43 30.35994 -84.13142 35923 ft 459 kts 303°
2026-04-25 19:43 30.39610 -84.19238 35922 ft 459 kts 304°
2026-04-25 19:44 30.42607 -84.24302 35920 ft 458 kts 303°
2026-04-25 19:44 30.46199 -84.30403 35921 ft 458 kts 303°
2026-04-25 19:45 30.49787 -84.36512 35918 ft 458 kts 303°
2026-04-25 19:45 30.53951 -84.43619 35914 ft 458 kts 303°
2026-04-25 19:46 30.56949 -84.48741 35911 ft 457 kts 303°
2026-04-25 19:46 30.60526 -84.54844 35910 ft 457 kts 303°
2026-04-25 19:47 30.64109 -84.60955 35909 ft 458 kts 303°
2026-04-25 19:47 30.67670 -84.67084 35904 ft 457 kts 303°
2026-04-25 19:48 30.71199 -84.73169 35896 ft 457 kts 303°
2026-04-25 19:48 30.74772 -84.79337 35890 ft 457 kts 303°
2026-04-25 19:49 30.77665 -84.84472 35886 ft 457 kts 299°
2026-04-25 19:49 30.81017 -84.92120 35883 ft 456 kts 294°
2026-04-25 19:50 30.84891 -85.02214 35883 ft 455 kts 293°
2026-04-25 19:51 30.87524 -85.08911 35883 ft 455 kts 294°
2026-04-25 19:51 30.90180 -85.15601 35881 ft 455 kts 294°
2026-04-25 19:52 30.92852 -85.22287 35882 ft 455 kts 294°
2026-04-25 19:52 30.95554 -85.28956 35887 ft 455 kts 294°
2026-04-25 19:53 30.98240 -85.35641 35892 ft 455 kts 294°
2026-04-25 19:53 31.00912 -85.42325 35896 ft 455 kts 294°
2026-04-25 19:54 31.03577 -85.49010 35895 ft 455 kts 294°
2026-04-25 19:54 31.06237 -85.55698 35892 ft 455 kts 294°
2026-04-25 19:55 31.08894 -85.62395 35891 ft 455 kts 293°
2026-04-25 19:55 31.11548 -85.69092 35879 ft 454 kts 293°
2026-04-25 19:56 31.14194 -85.75784 35870 ft 454 kts 293°
2026-04-25 19:56 31.16837 -85.82484 35877 ft 454 kts 293°
2026-04-25 19:57 31.19478 -85.89188 35886 ft 454 kts 293°
2026-04-25 19:57 31.22114 -85.95888 35889 ft 454 kts 293°
2026-04-25 19:58 31.24743 -86.02593 35894 ft 453 kts 293°
2026-04-25 19:58 31.27360 -86.09275 35894 ft 452 kts 293°
2026-04-25 19:59 31.29971 -86.15955 35893 ft 452 kts 292°
2026-04-25 19:59 31.32580 -86.22640 35890 ft 452 kts 292°
2026-04-25 20:00 31.35184 -86.29328 35890 ft 451 kts 292°
2026-04-25 20:00 31.37782 -86.36010 35891 ft 451 kts 292°
2026-04-25 20:01 31.41655 -86.45998 35890 ft 451 kts 292°
2026-04-25 20:01 31.44245 -86.52691 35892 ft 451 kts 292°
2026-04-25 20:02 31.46831 -86.59387 35893 ft 451 kts 292°
2026-04-25 20:02 31.49411 -86.66082 35894 ft 451 kts 292°
2026-04-25 20:03 31.51991 -86.72783 35894 ft 451 kts 292°
2026-04-25 20:03 31.54562 -86.79482 35899 ft 450 kts 292°
2026-04-25 20:04 31.57126 -86.86173 35901 ft 450 kts 292°
2026-04-25 20:04 31.59685 -86.92862 35903 ft 450 kts 292°
2026-04-25 20:05 31.62241 -86.99559 35903 ft 450 kts 292°
2026-04-25 20:05 31.64791 -87.06251 35904 ft 449 kts 292°
2026-04-25 20:06 31.67334 -87.12938 35905 ft 448 kts 292°
2026-04-25 20:06 31.69872 -87.19622 35904 ft 448 kts 292°
2026-04-25 20:07 31.72406 -87.26311 35904 ft 448 kts 292°
2026-04-25 20:07 31.74932 -87.32988 35904 ft 447 kts 292°
2026-04-25 20:08 31.77456 -87.39672 35899 ft 447 kts 292°
2026-04-25 20:08 31.79968 -87.46347 35902 ft 446 kts 292°
2026-04-25 20:09 31.82476 -87.53019 35901 ft 446 kts 292°
2026-04-25 20:09 31.84978 -87.59689 35901 ft 446 kts 292°
2026-04-25 20:10 31.87465 -87.66315 35900 ft 446 kts 292°
2026-04-25 20:10 31.89980 -87.72976 35901 ft 445 kts 292°
2026-04-25 20:11 31.92463 -87.79649 35900 ft 445 kts 292°
2026-04-25 20:11 31.94937 -87.86318 35902 ft 445 kts 292°
2026-04-25 20:12 31.97409 -87.92999 35902 ft 445 kts 292°
2026-04-25 20:12 31.99065 -87.97470 35903 ft 445 kts 291°
2026-04-25 20:13 32.01666 -88.06649 35904 ft 444 kts 283°
2026-04-25 20:13 32.03091 -88.13723 35901 ft 443 kts 282°
2026-04-25 20:14 32.04500 -88.20799 35903 ft 443 kts 283°
2026-04-25 20:14 32.05960 -88.27856 35904 ft 443 kts 283°
2026-04-25 20:15 32.07435 -88.34898 35898 ft 442 kts 283°
2026-04-25 20:15 32.08927 -88.41932 35897 ft 442 kts 283°
2026-04-25 20:16 32.10445 -88.48950 35897 ft 441 kts 283°
2026-04-25 20:16 32.11941 -88.55966 35897 ft 441 kts 283°
2026-04-25 20:17 32.13422 -88.62975 35901 ft 440 kts 283°
2026-04-25 20:17 32.14894 -88.69977 35901 ft 440 kts 283°
2026-04-25 20:18 32.16351 -88.76931 35901 ft 439 kts 283°
2026-04-25 20:18 32.17813 -88.83924 35898 ft 439 kts 283°
2026-04-25 20:19 32.19267 -88.90912 35899 ft 438 kts 283°
2026-04-25 20:19 32.20716 -88.97893 35898 ft 437 kts 283°
2026-04-25 20:20 32.22160 -89.04867 35899 ft 436 kts 283°
2026-04-25 20:20 32.23595 -89.11824 35898 ft 436 kts 283°
2026-04-25 20:21 32.25025 -89.18773 35896 ft 435 kts 283°
2026-04-25 20:21 32.26450 -89.25721 35897 ft 435 kts 284°
2026-04-25 20:22 32.27401 -89.30367 35896 ft 435 kts 284°
2026-04-25 20:22 32.29286 -89.39605 35895 ft 434 kts 284°
2026-04-25 20:23 32.30697 -89.46544 35896 ft 434 kts 284°
2026-04-25 20:23 32.32104 -89.53488 35892 ft 434 kts 284°
2026-04-25 20:24 32.33507 -89.60422 35888 ft 433 kts 284°
2026-04-25 20:24 32.34903 -89.67354 35888 ft 433 kts 284°
2026-04-25 20:25 32.36303 -89.74288 35887 ft 434 kts 284°
2026-04-25 20:25 32.37715 -89.81223 35886 ft 434 kts 284°
2026-04-25 20:26 32.39097 -89.88170 35886 ft 434 kts 284°
2026-04-25 20:26 32.40460 -89.95072 35885 ft 434 kts 284°
2026-04-25 20:27 32.41831 -90.02024 35885 ft 434 kts 284°
2026-04-25 20:27 32.43198 -90.08957 35881 ft 432 kts 284°
2026-04-25 20:28 32.44515 -90.15881 35881 ft 431 kts 283°
2026-04-25 20:28 32.45791 -90.22813 35884 ft 431 kts 283°
2026-04-25 20:29 32.47065 -90.29751 35890 ft 431 kts 283°
2026-04-25 20:29 32.48334 -90.36684 35890 ft 430 kts 283°
2026-04-25 20:30 32.49598 -90.43611 35889 ft 430 kts 283°
2026-04-25 20:30 32.50861 -90.50538 35888 ft 430 kts 283°
2026-04-25 20:31 32.52164 -90.57441 35889 ft 429 kts 283°
2026-04-25 20:31 32.53449 -90.64347 35888 ft 429 kts 283°
2026-04-25 20:32 32.54503 -90.70079 35887 ft 428 kts 283°
2026-04-25 20:32 32.55760 -90.76964 35890 ft 427 kts 283°
2026-04-25 20:33 32.57010 -90.83842 35891 ft 427 kts 283°
2026-04-25 20:33 32.58044 -90.89558 35890 ft 426 kts 283°
2026-04-25 20:34 32.59492 -90.97585 35888 ft 426 kts 283°
2026-04-25 20:34 32.60724 -91.04443 35888 ft 425 kts 283°
2026-04-25 20:35 32.61952 -91.11302 35893 ft 425 kts 283°
2026-04-25 20:35 32.63173 -91.18147 35892 ft 424 kts 283°
2026-04-25 20:36 32.64390 -91.24990 35893 ft 424 kts 282°
2026-04-25 20:36 32.65602 -91.31828 35895 ft 423 kts 282°
2026-04-25 20:37 32.66807 -91.38650 35895 ft 422 kts 282°
2026-04-25 20:37 32.68000 -91.45423 35897 ft 422 kts 282°
2026-04-25 20:38 32.69195 -91.52236 35897 ft 421 kts 282°
2026-04-25 20:38 32.70386 -91.59041 35898 ft 421 kts 282°
2026-04-25 20:39 32.71573 -91.65846 35898 ft 421 kts 282°
2026-04-25 20:39 32.72555 -91.71502 35900 ft 421 kts 282°
2026-04-25 20:40 32.73932 -91.79450 35900 ft 420 kts 282°
2026-04-25 20:40 32.75105 -91.86251 35900 ft 420 kts 282°
2026-04-25 20:41 32.76276 -91.93057 35899 ft 420 kts 282°
2026-04-25 20:41 32.77442 -91.99861 35901 ft 420 kts 282°
2026-04-25 20:42 32.78601 -92.06650 35899 ft 418 kts 282°
2026-04-25 20:42 32.79751 -92.13405 35898 ft 417 kts 282°
2026-04-25 20:43 32.80888 -92.20111 35898 ft 417 kts 282°
2026-04-25 20:43 32.82031 -92.26867 35896 ft 417 kts 282°
2026-04-25 20:44 32.83170 -92.33627 35894 ft 417 kts 282°
2026-04-25 20:44 32.84305 -92.40387 35894 ft 417 kts 282°
2026-04-25 20:45 32.85437 -92.47153 35888 ft 417 kts 282°
2026-04-25 20:45 32.86565 -92.53916 35887 ft 417 kts 282°
2026-04-25 20:46 32.87688 -92.60677 35884 ft 416 kts 282°
2026-04-25 20:46 32.88806 -92.67430 35885 ft 416 kts 282°
2026-04-25 20:47 32.89920 -92.74183 35885 ft 416 kts 282°
2026-04-25 20:47 32.91032 -92.80942 35883 ft 416 kts 282°
2026-04-25 20:48 32.92139 -92.87701 35879 ft 416 kts 282°
2026-04-25 20:48 32.93242 -92.94458 35876 ft 416 kts 282°
2026-04-25 20:49 32.94341 -93.01212 35875 ft 415 kts 282°
2026-04-25 20:49 32.95435 -93.07959 35873 ft 415 kts 282°
2026-04-25 20:50 32.96526 -93.14711 35870 ft 415 kts 282°
2026-04-25 20:50 32.97612 -93.21463 35868 ft 415 kts 282°
2026-04-25 20:51 32.98687 -93.28166 35863 ft 414 kts 282°
2026-04-25 20:51 32.99772 -93.34953 35862 ft 414 kts 282°
2026-04-25 20:52 33.00665 -93.40558 35863 ft 414 kts 282°
2026-04-25 20:52 33.01909 -93.48400 35862 ft 414 kts 282°
2026-04-25 20:53 33.02974 -93.55132 35862 ft 413 kts 282°
2026-04-25 20:53 33.04035 -93.61868 35862 ft 414 kts 282°
2026-04-25 20:54 33.05092 -93.68605 35863 ft 414 kts 282°
2026-04-25 20:54 33.06145 -93.75345 35862 ft 414 kts 282°
2026-04-25 20:55 33.07196 -93.82088 35861 ft 413 kts 282°
2026-04-25 20:55 33.08240 -93.88817 35858 ft 413 kts 282°
2026-04-25 20:56 33.09281 -93.95549 35858 ft 413 kts 281°